FW6744 Weather Reports


time (UTC)temp
C
wind
direction
speed
KPH
gust
KPH
rain 1hr
cm
rain 24hr
cm
rain mn
cm
humidity
%
barometer
mb
20260506044640 20 217 0.0 4.8 0.00 0.00 0.00 68 1008.9
20260506044139 20 2 0.0 4.8 0.00 0.00 0.00 67 1009.0
20260506043640 20 217 1.6 4.8 0.00 0.00 0.00 67 1009.0
20260506043138 20 178 1.6 4.8 0.00 0.00 0.00 67 1009.1
20260506042638 20 192 1.6 4.8 0.00 0.00 0.00 66 1008.8
20260506042137 20 193 1.6 3.2 0.00 0.00 0.00 66 1009.0
20260506041854 21 160 0.0 3.2 0.00 0.00 0.00 65 1008.9
20260506041402 21 166 0.0 3.2 0.00 0.00 0.00 64 1008.9
20260506040634 21 127 1.6 6.4 0.00 0.00 0.00 64 1008.9
20260506040132 21 5 1.6 6.4 0.00 0.00 0.00 63 1008.9
20260506035630 21 146 0.0 3.2 0.00 0.00 0.00 63 1008.9
20260506035130 21 10 0.0 3.2 0.00 0.00 0.00 62 1008.8
20260506034632 21 150 0.0 3.2 0.00 0.00 0.00 61 1008.8
20260506034126 21 210 0.0 3.2 0.00 0.00 0.00 60 1008.8
20260506033627 21 157 0.0 3.2 0.00 0.00 0.00 60 1008.8
20260506033350 21 164 1.6 3.2 0.00 0.00 0.00 59 1008.9
20260506032625 21 150 1.6 6.4 0.00 0.00 0.00 59 1008.9
20260506032124 21 165 0.0 6.4 0.00 0.00 0.00 59 1008.9
20260506031624 21 152 0.0 4.8 0.00 0.00 0.00 58 1008.8
20260506031344 21 162 0.0 4.8 0.00 0.00 0.00 58 1008.8
20260506030849 22 146 0.0 4.8 0.00 0.00 0.00 57 1008.8
20260506030125 22 166 0.0 4.8 0.00 0.00 0.00 57 1008.7
20260506025621 22 153 0.0 3.2 0.00 0.00 0.00 57 1008.6
20260506025120 22 159 0.0 3.2 0.00 0.00 0.00 57 1008.8
20260506024620 22 160 0.0 3.2 0.00 0.00 0.00 56 1008.8
20260506024330 22 150 0.0 3.2 0.00 0.00 0.00 56 1008.8
20260506024216 22 164 0.0 3.2 0.00 0.00 0.00 56 1008.8
20260506023341 22 155 0.0 3.2 0.00 0.00 0.00 56 1008.9
20260506022620 22 188 0.0 1.6 0.00 0.00 0.00 55 1008.9
20260506022120 22 218 0.0 1.6 0.00 0.00 0.00 55 1008.9
20260506021844 22 234 0.0 0.0 0.00 0.00 0.00 55 1008.8
20260506021337 22 160 0.0 1.6 0.00 0.00 0.00 54 1008.9
20260506020616 22 160 0.0 1.6 0.00 0.00 0.00 54 1008.8
20260506020117 22 231 0.0 1.6 0.00 0.00 0.00 54 1008.8
20260506015615 22 148 0.0 1.6 0.00 0.00 0.00 54 1008.8
20260506015113 22 174 0.0 1.6 0.00 0.00 0.00 53 1008.7
20260506014613 23 214 0.0 3.2 0.00 0.00 0.00 53 1008.5
20260506014111 23 192 0.0 3.2 0.00 0.00 0.00 53 1008.5
20260506013612 23 155 0.0 3.2 0.00 0.00 0.00 52 1008.5
20260506013112 23 160 0.0 3.2 0.00 0.00 0.00 52 1008.4
20260506012608 23 161 0.0 3.2 0.00 0.00 0.00 52 1008.4
20260506012105 23 160 0.0 3.2 0.00 0.00 0.00 52 1008.3
20260506011607 23 156 0.0 3.2 0.00 0.00 0.00 51 1008.3
20260506011106 23 170 0.0 9.7 0.00 0.00 0.00 51 1008.2
20260506010605 23 156 0.0 9.7 0.00 0.00 0.00 51 1008.2
20260506010327 23 155 0.0 6.4 0.00 0.00 0.00 50 1008.2
20260506005604 23 159 0.0 6.4 0.00 0.00 0.00 50 1008.2
20260506005104 23 162 0.0 3.2 0.00 0.00 0.00 50 1008.1
20260506004604 23 160 0.0 1.6 0.00 0.00 0.00 50 1008.1
20260506004326 23 160 0.0 1.6 0.00 0.00 0.00 49 1008.0
20260506003601 23 168 0.0 4.8 0.00 0.00 0.00 49 1007.9
20260506003316 24 176 0.0 4.8 0.00 0.00 0.00 49 1007.9
20260506002548 24 185 0.0 3.2 0.00 0.00 0.00 48 1008.0
20260506002043 24 158 0.0 3.2 0.00 0.00 0.00 48 1007.9
20260506001537 24 141 0.0 1.6 0.00 0.00 0.00 48 1007.8
20260506001031 24 129 0.0 4.8 0.00 0.00 0.00 47 1007.8
20260506000525 25 147 0.0 4.8 0.00 0.00 0.00 47 1007.8
20260506000018 25 155 0.0 3.2 0.00 0.00 0.00 46 1007.7
20260505235512 25 160 0.0 3.2 0.00 0.00 0.00 46 1007.7
20260505235007 25 214 1.6 4.8 0.00 0.00 0.00 46 1007.7
20260505234501 25 229 0.0 4.8 0.00 0.00 0.00 45 1007.8
20260505233955 25 159 0.0 3.2 0.00 0.00 0.00 45 1007.6
20260505233449 25 46 0.0 3.2 0.00 0.00 0.00 44 1007.6
20260505232942 25 163 0.0 3.2 0.00 0.00 0.00 44 1007.6
20260505232437 25 153 0.0 3.2 0.00 0.00 0.00 44 1007.6
20260505231932 25 167 0.0 3.2 0.00 0.00 0.00 43 1007.7
20260505231425 26 226 0.0 3.2 0.00 0.00 0.00 43 1007.6
20260505231141 26 165 0.0 4.8 0.00 0.00 0.00 42 1007.6
20260505230413 26 329 1.6 9.7 0.00 0.00 0.00 41 1007.6
20260505230125 26 179 1.6 9.7 0.00 0.00 0.00 41 1007.6
20260505225624 26 250 1.6 6.4 0.00 0.00 0.00 41 1007.6
20260505225122 26 214 1.6 4.8 0.00 0.00 0.00 40 1007.5
20260505224622 27 168 1.6 4.8 0.00 0.00 0.00 40 1007.6
20260505223842 27 151 1.6 4.8 0.00 0.00 0.00 39 1007.7
20260505223336 27 160 1.6 4.8 0.00 0.00 0.00 38 1007.6
20260505222831 27 354 1.6 4.8 0.00 0.00 0.00 38 1007.7
20260505222326 28 46 0.0 8.0 0.00 0.00 0.00 37 1007.6
20260505221819 28 186 1.6 8.0 0.00 0.00 0.00 37 1007.6
20260505221313 28 194 1.6 6.4 0.00 0.00 0.00 36 1007.5
20260505220806 28 156 1.6 9.7 0.00 0.00 0.00 35 1007.5
20260505215754 28 270 1.6 6.4 0.00 0.00 0.00 33 1007.4
20260505215515 28 222 1.6 6.4 0.00 0.00 0.00 34 1007.5
20260505214743 28 236 1.6 6.4 0.00 0.00 0.00 32 1007.4
20260505214501 28 123 1.6 9.7 0.00 0.00 0.00 33 1007.3
20260505213955 28 215 1.6 9.7 0.00 0.00 0.00 31 1007.3
20260505213225 28 45 1.6 9.7 0.00 0.00 0.00 31 1007.4
20260505212719 29 206 1.6 11.3 0.00 0.00 0.00 30 1007.3
20260505212433 29 158 1.6 11.3 0.00 0.00 0.00 31 1007.3
20260505211932 29 196 1.6 6.4 0.00 0.00 0.00 32 1007.3
20260505211210 29 153 3.2 9.7 0.00 0.00 0.00 31 1007.4
20260505210710 29 110 3.2 11.3 0.00 0.00 0.00 29 1007.4
20260505210207 30 98 1.6 11.3 0.00 0.00 0.00 29 1007.5
20260505205707 29 205 1.6 9.7 0.00 0.00 0.00 29 1007.5
20260505205207 29 162 1.6 9.7 0.00 0.00 0.00 29 1007.4
20260505204706 29 238 3.2 11.3 0.00 0.00 0.00 30 1007.4
20260505204208 30 169 3.2 11.3 0.00 0.00 0.00 27 1007.4
20260505203705 30 193 3.2 8.0 0.00 0.00 0.00 28 1007.2
20260505203205 30 223 1.6 8.0 0.00 0.00 0.00 28 1007.4
20260505202710 30 165 1.6 6.4 0.00 0.00 0.00 27 1007.4
20260505202206 30 162 1.6 6.4 0.00 0.00 0.00 28 1007.2
20260505201705 30 209 3.2 9.7 0.00 0.00 0.00 28 1007.4
20260505201206 30 156 3.2 9.7 0.00 0.00 0.00 28 1007.4
20260505200705 31 149 1.6 9.7 0.00 0.00 0.00 28 1007.3
20260505200204 31 162 3.2 9.7 0.00 0.00 0.00 29 1007.5
20260505195706 31 203 3.2 8.0 0.00 0.00 0.00 29 1007.5
20260505195420 31 85 1.6 11.3 0.00 0.00 0.00 28 1007.6
20260505194701 31 154 1.6 11.3 0.00 0.00 0.00 29 1007.6
20260505194159 31 208 1.6 9.7 0.00 0.00 0.00 28 1007.7
20260505193700 31 214 1.6 4.8 0.00 0.00 0.00 29 1007.8
20260505193157 31 39 1.6 8.0 0.00 0.00 0.00 28 1007.8
20260505192657 31 158 3.2 8.0 0.00 0.00 0.00 29 1007.8
20260505192157 31 195 3.2 8.0 0.00 0.00 0.00 28 1007.9
20260505191658 31 156 1.6 8.0 0.00 0.00 0.00 29 1008.0
20260505191156 31 165 1.6 8.0 0.00 0.00 0.00 29 1008.0
20260505190659 31 214 1.6 6.4 0.00 0.00 0.00 29 1008.1
20260505190159 31 152 1.6 11.3 0.00 0.00 0.00 30 1008.2
20260505185656 31 174 3.2 11.3 0.00 0.00 0.00 31 1008.3
20260505185159 30 75 3.2 11.3 0.00 0.00 0.00 31 1008.4
20260505184658 30 346 3.2 8.0 0.00 0.00 0.00 30 1008.5
20260505184157 31 159 3.2 12.9 0.00 0.00 0.00 30 1008.5
20260505183656 30 163 3.2 14.5 0.00 0.00 0.00 31 1008.7
20260505183157 30 231 3.2 14.5 0.00 0.00 0.00 29 1008.7
20260505182656 31 226 3.2 12.9 0.00 0.00 0.00 31 1008.7
20260505182158 30 257 3.2 12.9 0.00 0.00 0.00 29 1008.8
20260505181658 30 171 3.2 17.7 0.00 0.00 0.00 30 1008.9
20260505181156 30 168 3.2 17.7 0.00 0.00 0.00 29 1008.8
20260505180658 30 265 3.2 8.0 0.00 0.00 0.00 28 1009.0
20260505180652 30 161 1.6 8.0 0.00 0.00 0.00 31 1009.1
20260505175927 30 322 3.2 9.7 0.00 0.00 0.00 30 1009.1
20260505175157 30 211 3.2 9.7 0.00 0.00 0.00 32 1009.2
20260505174657 30 231 1.6 9.7 0.00 0.00 0.00 32 1009.1
20260505174157 29 172 3.2 19.3 0.00 0.00 0.00 32 1009.1
20260505173657 29 232 3.2 19.3 0.00 0.00 0.00 35 1009.1
20260505173157 29 148 3.2 12.9 0.00 0.00 0.00 34 1009.1
20260505173142 30 239 1.6 12.9 0.00 0.00 0.00 36 1009.3
20260505172158 30 233 1.6 6.4 0.00 0.00 0.00 36 1009.4
20260505171656 29 190 1.6 8.0 0.00 0.00 0.00 37 1009.4
20260505171414 28 174 3.2 16.1 0.00 0.00 0.00 39 1009.4
20260505170656 28 210 1.6 16.1 0.00 0.00 0.00 37 1009.5
20260505170157 28 224 1.6 11.3 0.00 0.00 0.00 38 1009.7
20260505165925 29 145 1.6 8.0 0.00 0.00 0.00 39 1009.6
20260505165156 29 231 1.6 4.8 0.00 0.00 0.00 40 1009.7
20260505164656 28 191 1.6 11.3 0.00 0.00 0.00 41 1009.6
20260505164157 28 179 1.6 11.3 0.00 0.00 0.00 41 1009.7
20260505163658 28 143 1.6 8.0 0.00 0.00 0.00 41 1009.7
20260505163157 28 48 1.6 4.8 0.00 0.00 0.00 40 1009.8
20260505162658 27 12 1.6 4.8 0.00 0.00 0.00 43 1009.8
20260505162154 27 311 0.0 4.8 0.00 0.00 0.00 45 1009.9
20260505161650 26 162 1.6 8.0 0.00 0.00 0.00 44 1009.9
20260505161151 26 127 1.6 8.0 0.00 0.00 0.00 46 1010.2
20260505160651 26 195 1.6 6.4 0.00 0.00 0.00 47 1010.3
20260505160150 26 146 1.6 6.4 0.00 0.00 0.00 47 1010.3
20260505153144 23 193 0.0 6.4 0.00 0.00 0.00 53 1010.5
20260505153132 23 39 0.0 6.4 0.00 0.00 0.00 52 1010.5
20260505152147 23 155 0.0 1.6 0.00 0.00 0.00 54 1010.6
20260505151643 23 210 0.0 3.2 0.00 0.00 0.00 54 1010.5
20260505151142 22 153 0.0 3.2 0.00 0.00 0.00 55 1010.4
20260505150641 22 334 0.0 1.6 0.00 0.00 0.00 55 1010.5
20260505150138 22 147 0.0 4.8 0.00 0.00 0.00 55 1010.6
20260505140635 20 4 0.0 4.8 0.00 0.00 0.00 61 1010.5
20260505140133 20 308 0.0 3.2 0.00 0.00 0.00 61 1010.5
20260505125038 17 195 0.0 4.8 0.00 0.00 0.00 68 1010.6
20260505124532 17 221 0.0 8.0 0.00 0.00 0.00 69 1010.7
20260505124249 17 352 1.6 8.0 0.00 0.00 0.00 69 1010.8
20260505123520 17 236 1.6 6.4 0.00 0.00 0.00 69 1010.8
20260505123014 17 202 1.6 12.9 0.00 0.00 0.00 69 1010.8
20260505122507 16 193 1.6 12.9 0.00 0.00 0.00 70 1010.7
20260505122002 16 80 1.6 11.3 0.00 0.00 0.00 70 1010.7
20260505121455 16 140 1.6 8.0 0.00 0.00 0.00 71 1010.6
20260505121210 16 25 1.6 8.0 0.00 0.00 0.00 71 1010.5
20260505120443 16 221 1.6 6.4 0.00 0.00 0.00 71 1010.4
20260505120205 16 226 1.6 6.4 0.00 0.00 0.00 72 1010.4
20260505115658 16 28 1.6 6.4 0.00 0.00 0.00 72 1010.4
20260505114935 16 219 0.0 4.8 0.00 0.00 0.00 72 1010.3
20260505114435 16 50 0.0 6.4 0.00 0.00 0.00 73 1010.2
20260505113931 16 72 0.0 6.4 0.00 0.00 0.00 73 1010.2
20260505113700 16 205 0.0 1.6 0.00 0.00 0.00 74 1010.2
20260505112932 16 86 0.0 4.8 0.00 0.00 0.00 74 1010.1
20260505112432 15 47 0.0 4.8 0.00 0.00 0.00 75 1010.0
20260505111932 15 239 0.0 6.4 0.00 0.00 0.00 75 1010.0
20260505111658 15 11 0.0 6.4 0.00 0.00 0.00 75 1010.0
20260505110932 15 145 0.0 1.6 0.00 0.00 0.00 75 1009.9
20260505110434 15 120 0.0 1.6 0.00 0.00 0.00 75 1009.9
20260505101925 15 211 0.0 1.6 0.00 0.00 0.00 73 1009.5
20260505101647 15 193 0.0 1.6 0.00 0.00 0.00 73 1009.6
20260505100924 15 115 0.0 1.6 0.00 0.00 0.00 73 1009.5
20260505100423 15 22 0.0 3.2 0.00 0.00 0.00 72 1009.5
20260505100149 15 65 0.0 3.2 0.00 0.00 0.00 72 1009.5
20260505095425 16 34 0.0 3.2 0.00 0.00 0.00 72 1009.5
20260505094923 16 26 0.0 3.2 0.00 0.00 0.00 71 1009.6
20260505094425 16 214 0.0 1.6 0.00 0.00 0.00 71 1009.5
20260505093923 16 214 0.0 6.4 0.00 0.00 0.00 71 1009.4
20260505093423 16 293 0.0 6.4 0.00 0.00 0.00 70 1009.4
20260505092922 16 224 0.0 1.6 0.00 0.00 0.00 70 1009.4
20260505092420 16 220 0.0 1.6 0.00 0.00 0.00 70 1009.4
20260505091920 16 248 0.0 4.8 0.00 0.00 0.00 70 1009.4
20260505091644 16 212 0.0 4.8 0.00 0.00 0.00 70 1009.4
20260505090919 16 139 0.0 3.2 0.00 0.00 0.00 69 1009.3
20260505090419 16 155 0.0 3.2 0.00 0.00 0.00 69 1009.3
20260505085918 16 200 0.0 4.8 0.00 0.00 0.00 69 1009.3
20260505085418 16 39 0.0 4.8 0.00 0.00 0.00 69 1009.3
20260505084917 16 0 0.0 4.8 0.00 0.00 0.00 69 1009.3
20260505084419 16 98 0.0 4.8 0.00 0.00 0.00 69 1009.3
20260505083921 16 356 0.0 3.2 0.00 0.00 0.00 68 1009.4
20260505083421 16 212 0.0 3.2 0.00 0.00 0.00 68 1009.3
20260505082921 17 200 0.0 3.2 0.00 0.00 0.00 68 1009.2
20260505082422 17 199 0.0 3.2 0.00 0.00 0.00 68 1009.3
20260505081917 16 204 0.0 3.2 0.00 0.00 0.00 68 1009.3
20260505081643 16 59 0.0 3.2 0.00 0.00 0.00 68 1009.3
20260505080917 16 147 0.0 3.2 0.00 0.00 0.00 68 1009.3
20260505080414 16 204 0.0 3.2 0.00 0.00 0.00 68 1009.2
20260505080136 16 209 0.0 3.2 0.00 0.00 0.00 68 1009.4
20260505075413 16 223 0.0 1.6 0.00 0.00 0.00 67 1009.3
20260505074913 16 177 0.0 1.6 0.00 0.00 0.00 67 1009.3
20260505074634 16 143 0.0 1.6 0.00 0.00 0.00 67 1009.3
20260505073915 16 202 0.0 1.6 0.00 0.00 0.00 66 1009.3
20260505073414 16 1 0.0 4.8 0.00 0.00 0.00 66 1009.2
20260505072915 16 307 0.0 4.8 0.00 0.00 0.00 66 1009.1
20260505072414 16 150 0.0 1.6 0.00 0.00 0.00 65 1009.0
20260505071914 17 194 0.0 1.6 0.00 0.00 0.00 65 1009.0
20260505071413 17 72 0.0 3.2 0.00 0.00 0.00 64 1009.0
20260505070913 17 4 0.0 3.2 0.00 0.00 0.00 64 1009.0
20260505070414 17 217 0.0 3.2 0.00 0.00 0.00 63 1008.9
20260505065914 17 222 0.0 3.2 0.00 0.00 0.00 63 1008.9
20260505065413 17 19 0.0 3.2 0.00 0.00 0.00 63 1008.9
20260505065142 17 166 0.0 3.2 0.00 0.00 0.00 63 1008.9
20260505064414 17 218 0.0 3.2 0.00 0.00 0.00 63 1009.0
20260505063912 17 205 0.0 3.2 0.00 0.00 0.00 62 1008.9
20260505063411 17 109 0.0 3.2 0.00 0.00 0.00 62 1008.8
20260505062909 17 169 0.0 3.2 0.00 0.00 0.00 62 1008.9
20260505062408 17 226 0.0 3.2 0.00 0.00 0.00 61 1008.8
20260505061910 17 208 0.0 3.2 0.00 0.00 0.00 61 1008.8
20260505061405 17 228 0.0 3.2 0.00 0.00 0.00 61 1008.7
20260505061129 17 177 0.0 3.2 0.00 0.00 0.00 61 1008.8
20260505060405 17 248 0.0 3.2 0.00 0.00 0.00 60 1008.9
20260505060125 17 240 0.0 3.2 0.00 0.00 0.00 60 1009.0
20260505055620 17 152 0.0 1.6 0.00 0.00 0.00 60 1008.9
20260505055114 17 217 0.0 3.2 0.00 0.00 0.00 59 1008.9
20260505054954 17 173 0.0 1.6 0.00 0.00 0.00 59 1009.0
20260505053854 17 207 0.0 3.2 0.00 0.00 0.00 58 1009.0
20260505053352 17 180 0.0 3.2 0.00 0.00 0.00 58 1008.9
20260505052850 17 224 0.0 3.2 0.00 0.00 0.00 57 1008.9
20260505052353 17 167 0.0 1.6 0.00 0.00 0.00 57 1008.9
20260505051847 17 159 0.0 1.6 0.00 0.00 0.00 56 1008.9
20260505051341 18 157 0.0 1.6 0.00 0.00 0.00 56 1009.0
20260505050834 18 162 0.0 1.6 0.00 0.00 0.00 56 1008.9
20260505050328 18 176 0.0 0.0 0.00 0.00 0.00 55 1008.9